Tracking 30258 objects as of 19-Feb-2025
HD Live streaming from Space Station
objects crossing your sky now

OBJECT E

Track OBJECT E now!
10-day predictions


NORAD ID: 61231
Int'l Code: 2024-173E
Perigee: 514.3 km
Apogee: 516.6 km
Inclination: 97.4 °
Period: 94.8 minutes
Semi major axis: 6886 km
RCS: Unknown
Launch date: September 24, 2024
Source: People's Republic of China (PRC)
Launch site: Yellow Sea Launch Area, China (YSLA)
Your satellite tracking list
Your tracking list is empty




NASA's NSSDC Master Catalog

Two Line Element Set (TLE):
1 61231U 24173E   25050.22152929  .00004290  00000-0  20718-3 0  9990
2 61231  97.4122 126.4510 0001640  89.3936 270.7486 15.19177277 22430
Source of the keplerian elements: AFSPC